Lumberton, NC

9:17 PM EST on February 20, 2017 (GMT -0500)
Lumberton Municipal

Weather History for KLBT - March, 2014

Change the Weather History Date:

Friday, March 28, 2014

  Actual Average Record
Temperature  
Mean Temperature 55 °F 57 °F  
Max Temperature 71 °F 70 °F 85 °F (2007)
Min Temperature 39 °F 45 °F 27 °F (2001)
Degree Days  
Heating Degree Days 10 8  
Month to date heating degree days 493 324  
Since 1 July heating degree days 2789 2554  
Cooling Degree Days 0 0  
Month to date cooling degree days 0 0  
Year to date cooling degree days 1 3  
Growing Degree Days 4 (Base 50)    
Moisture  
Dew Point 55 °F    
Average Humidity 79    
Maximum Humidity 100    
Minimum Humidity 57    
Precipitation  
Precipitation 0.33 in 0.11 in 0.69 in (2009)
Month to date precipitation 2.64 2.97  
Year to date precipitation 8.71 8.84  
Sea Level Pressure  
Sea Level Pressure 30.17 in    
Wind  
Wind Speed 5 mph (South)    
Max Wind Speed 18 mph    
Max Gust Speed 26 mph    
Visibility 7 miles    
Events Rain    
T = Trace of Precipitation, MM = Missing Value Source: NWS Daily Summary

Daily Weather History Graph

Daily Weather History Graph

Search for Another Location

Airport or City:

Trip Planner

Search our weather history database for the weather conditions in past years. The results will help you decide how hot, cold, wet, or windy it might be!

Date:

Astronomy

Mar. 28, 2014 Rise Set
Actual Time 7:08 AM EDT 7:34 PM EDT
Civil Twilight 6:43 AM EDT 7:59 PM EDT
Nautical Twilight 6:13 AM EDT 8:29 PM EDT
Astronomical Twilight 5:43 AM EDT 8:59 PM EDT
Moon 5:33 AM EDT (3/28) 5:33 PM EDT (3/28)
Length of Visible Light 13h 15m
Length of Day
12h 25m
Waning Crescent, 6% of the Moon is Illuminated
Mar 28
Waning Crescent
Mar 30
New
Apr 7
First Quarter
Apr 15
Full
Apr 22
Last Quarter

Hourly Weather History & Observations

Time (EDT) Temp. Windchill Dew Point Humidity Pressure Visibility Wind Dir Wind Speed Gust Speed Precip Events Conditions
12:54 AM 44.1 °F 42.5 °F 37.9 °F 79% 30.29 in 10.0 mi SE 3.5 mph - N/A   Clear
1:54 AM 43.0 °F - 37.9 °F 82% 30.29 in 10.0 mi Calm Calm - N/A   Clear
2:54 AM 41.0 °F - 37.9 °F 89% 30.27 in 10.0 mi Calm Calm - N/A   Clear
3:54 AM 39.9 °F - 37.0 °F 89% 30.25 in 10.0 mi Calm Calm - N/A   Clear
4:54 AM 42.1 °F - 39.0 °F 89% 30.24 in 10.0 mi Calm Calm - N/A   Mostly Cloudy
5:54 AM 42.1 °F 40.2 °F 39.9 °F 92% 30.23 in 10.0 mi ESE 3.5 mph - N/A   Mostly Cloudy
6:54 AM 44.1 °F - 41.0 °F 89% 30.23 in 10.0 mi Calm Calm - N/A   Scattered Clouds
7:54 AM 46.0 °F 44.8 °F 44.1 °F 93% 30.23 in 10.0 mi SE 3.5 mph - N/A   Clear
8:54 AM 55.9 °F - 50.0 °F 80% 30.23 in 10.0 mi Variable 4.6 mph - N/A   Partly Cloudy
9:54 AM 64.9 °F - 53.1 °F 65% 30.24 in 10.0 mi South 8.1 mph - N/A   Clear
10:54 AM 69.1 °F - 54.0 °F 58% 30.22 in 10.0 mi South 13.8 mph 21.9 mph N/A   Partly Cloudy
11:54 AM 70.0 °F - 54.0 °F 57% 30.20 in 10.0 mi South 13.8 mph 25.3 mph N/A   Mostly Cloudy
12:54 PM 70.0 °F - 55.0 °F 59% 30.18 in 10.0 mi South 13.8 mph 19.6 mph N/A   Overcast
1:54 PM 64.0 °F - 60.1 °F 87% 30.19 in 3.0 mi SW 10.4 mph 19.6 mph 0.01 in Rain Rain
2:45 PM 64.0 °F - 61.0 °F 90% 30.16 in 2.0 mi Variable 6.9 mph 18.4 mph 0.02 in Rain Light Rain
2:52 PM 64.4 °F - 60.8 °F 88% 30.16 in 6.0 mi SSW 8.1 mph - 0.02 in Rain Light Rain
2:54 PM 64.0 °F - 61.0 °F 90% 30.16 in 9.0 mi SSW 8.1 mph - 0.02 in   Overcast
3:20 PM 64.9 °F - 60.1 °F 84% 30.16 in 10.0 mi SSW 6.9 mph 17.3 mph N/A   Overcast
3:40 PM 64.9 °F - 60.1 °F 84% 30.15 in 4.0 mi SSW 9.2 mph - 0.00 in Rain Light Rain
3:54 PM 64.9 °F - 61.0 °F 87% 30.14 in 10.0 mi South 6.9 mph - 0.00 in   Overcast
4:54 PM 66.9 °F - 60.1 °F 79% 30.12 in 10.0 mi SSW 11.5 mph 19.6 mph N/A   Unknown
5:54 PM 68.0 °F - 60.1 °F 76% 30.12 in 10.0 mi South 6.9 mph - N/A   Overcast
6:54 PM 66.9 °F - 59.0 °F 76% 30.13 in 10.0 mi SSE 6.9 mph - N/A   Mostly Cloudy
7:54 PM 64.9 °F - 59.0 °F 81% 30.13 in 10.0 mi South 4.6 mph - N/A   Overcast
8:54 PM 63.0 °F - 60.1 °F 90% 30.14 in 6.0 mi Calm Calm - 0.01 in Rain Light Rain
9:25 PM 62.1 °F - 60.1 °F 93% 30.14 in 4.0 mi Calm Calm - 0.03 in Rain Light Rain
9:45 PM 62.1 °F - 60.1 °F 93% 30.14 in 4.0 mi Calm Calm - 0.04 in Rain Light Rain
9:54 PM 62.1 °F - 60.1 °F 93% 30.14 in 4.0 mi Calm Calm - 0.04 in Rain Light Rain
10:02 PM 62.1 °F - 61.0 °F 96% 30.14 in 5.0 mi Calm Calm - 0.01 in Rain Light Rain
10:09 PM 62.1 °F - 61.0 °F 96% 30.13 in 7.0 mi Calm Calm - 0.01 in   Overcast
10:23 PM 62.1 °F - 60.1 °F 93% 30.13 in 4.0 mi NNW 3.5 mph - 0.02 in Rain Light Rain
10:32 PM 62.1 °F - 60.1 °F 93% 30.13 in 3.0 mi Calm Calm - 0.02 in Rain Light Rain
10:41 PM 61.0 °F - 60.1 °F 97% 30.13 in 2.0 mi NNE 3.5 mph - 0.02 in Rain Light Rain
10:49 PM 60.8 °F - 60.8 °F 100% 30.13 in 1.8 mi Calm Calm - 0.04 in Rain Light Rain
10:54 PM 62.1 °F - 61.0 °F 96% 30.13 in 2.0 mi Calm Calm - 0.04 in Rain Light Rain
11:06 PM 62.1 °F - 61.0 °F 96% 30.12 in 3.0 mi Calm Calm - 0.01 in Rain Light Rain
11:13 PM 62.1 °F - 61.0 °F 96% 30.12 in 2.5 mi Calm Calm - 0.02 in Rain Light Rain
11:38 PM 61.0 °F - 60.1 °F 97% 30.12 in 1.5 mi ESE 4.6 mph - 0.06 in Rain Rain
11:43 PM 61.0 °F - 60.1 °F 97% 30.11 in 1.8 mi ESE 4.6 mph - 0.08 in Rain Rain
11:54 PM 61.0 °F - 61.0 °F 100% 30.11 in 2.5 mi SE 3.5 mph - 0.10 in Rain Rain